Weather History for Taba International, Egypt

Change the Weather History Date:

Tuesday, March 5, 2013

  Actual Average Record
Temperature  
Mean Temperature 54 °F -  
Max Temperature 60 °F - - ()
Min Temperature 48 °F - - ()
Degree Days  
Heating Degree Days 11    
Growing Degree Days 4 (Base 50)    
Moisture  
Dew Point 40 °F    
Average Humidity 61    
Maximum Humidity 93    
Minimum Humidity 39    
Precipitation  
Precipitation 0.00 in - - ()
Sea Level Pressure  
Sea Level Pressure 30.08 in    
Wind  
Wind Speed 3 mph ()    
Max Wind Speed 12 mph    
Max Gust Speed -    
Visibility 6.2 miles    
Events      
T = Trace of Precipitation, MM = Missing Value Source: Averaged Metar Reports

Daily Weather History Graph

Daily Weather History Graph

Search for Another Location

Airport:

Trip Planner

Search our weather history database for the weather conditions in past years. The results will help you decide how hot, cold, wet, or windy it might be!

Date:

Astronomy

Mar. 05, 2013 Rise Set
Actual Time 6:02 AM EET 5:42 PM EET
Civil Twilight 5:38 AM EET 6:06 PM EET
Nautical Twilight 5:10 AM EET 6:34 PM EET
Astronomical Twilight 4:43 AM EET 7:01 PM EET
Moon 12:34 AM EET (3/5) 11:20 AM EET (3/5)
Length of Visible Light 12h 28m
Length of Day
11h 40m
Last Quarter, 44% of the Moon is Illuminated
Mar 5
Last Quarter
Mar 11
New
Mar 19
First Quarter
Mar 27
Full
Apr 3
Last Quarter

Hourly Weather History & Observations

Time (EET) Temp. Dew Point Humidity Pressure Visibility Wind Dir Wind Speed Gust Speed Precip Events Conditions
12:00 AM 50.0 °F 44.6 °F 82% 30.06 in - West 5.8 mph - N/A   Clear
1:00 AM 50.0 °F 42.8 °F 76% 30.06 in - West 4.6 mph - N/A   Clear
2:00 AM 50.0 °F 44.6 °F 82% 30.04 in - Calm Calm - N/A   Clear
3:00 AM 48.2 °F 42.8 °F 82% 30.06 in - West 4.6 mph - N/A   Clear
4:00 AM 48.2 °F 46.4 °F 93% 30.06 in - Calm Calm - N/A   Clear
5:00 AM 48.2 °F 44.6 °F 87% 30.06 in - Calm Calm - N/A   Clear
8:00 AM 50.0 °F 46.4 °F 87% 30.09 in - Calm Calm - N/A   Clear
9:00 AM 51.8 °F 42.8 °F 71% 30.09 in 6.2 mi Calm Calm - N/A   Scattered Clouds
10:00 AM 55.4 °F 39.2 °F 54% 30.12 in 6.2 mi Calm Calm - N/A   Scattered Clouds
11:00 AM 57.2 °F 39.2 °F 51% 30.09 in 6.2 mi West 4.6 mph - N/A   Scattered Clouds
12:00 PM 59.0 °F 37.4 °F 45% 30.09 in 6.2 mi NNW 8.1 mph - N/A   Scattered Clouds
1:00 PM 60.8 °F 39.2 °F 45% 30.06 in 6.2 mi WNW 5.8 mph - N/A   Scattered Clouds
2:00 PM 60.8 °F 37.4 °F 42% 30.06 in 6.2 mi WNW 5.8 mph - N/A   Scattered Clouds
3:00 PM 60.8 °F 35.6 °F 39% 30.06 in 6.2 mi North 9.2 mph - N/A   Scattered Clouds
4:00 PM 60.8 °F 37.4 °F 42% 30.06 in 6.2 mi NNW 11.5 mph - N/A   Scattered Clouds
5:00 PM 60.8 °F 37.4 °F 42% 30.06 in 6.2 mi NNW 5.8 mph - N/A   Scattered Clouds
6:00 PM 57.2 °F 35.6 °F 44% 30.06 in - North 4.6 mph - N/A   Clear
7:00 PM 55.4 °F 37.4 °F 51% 30.09 in - Calm Calm - N/A   Clear
8:00 PM 53.6 °F 37.4 °F 54% 30.12 in - NNW 8.1 mph - N/A   Clear
9:00 PM 51.8 °F 37.4 °F 58% 30.12 in - Calm Calm - N/A   Clear
10:00 PM 50.0 °F 37.4 °F 62% 30.15 in - Calm Calm - N/A   Clear